sat.trackr.live / text

‹ back to catalog

STARLINK-6250

NORAD 57230 · 2023-094N

PAYLOAD ACTIVE UNKNOWN

§ Identity

Operator
Country
US
Launch date
2023-07-07
Launch site
AFWTR
Launch vehicle
Mass (kg)
RCS (m²)

Purposes: comms

External: N2YO · Heavens-Above · Gunter

§ Orbital elements

Epoch: 2026-09-20T08:32:49.611264Z

Period
94.27 min
Inclination
43.0042°
Eccentricity
0.0001343
Mean motion
15.27571065 rev/d
Perigee alt
482.2 km
Apogee alt
484.0 km
Semi-major
6,861.2 km
B*
-8.1652e-6
RAAN
11.6502°
Arg perigee
276.4441°
Mean anomaly
83.6258°
Rev number
17,688

§ Raw data

STARLINK-62501 57230U 23094N   26263.35612976 -.00000487  00000+0 -81652-5 0  99902 57230  43.0042  11.6502 0001343 276.4441  83.6258 15.27571065176887

JSON: /api/v1/satellites/57230 · /tle

For live sub-satellite position, see the globe view (requires WebGL).

§ Visibility from observer

Set your observer location to see the next 7 days of passes ≥ 10°. The values pass through the URL so the page stays shareable.

No JS? Fill the form by hand. The geolocation button needs JavaScript.